sat.trackr.live / text

‹ back to catalog

STARLINK-32938

NORAD 63201 · 2025-048U

PAYLOAD ACTIVE UNKNOWN

§ Identity

Operator
Country
US
Launch date
2025-03-13
Launch site
AFETR
Launch vehicle
Mass (kg)
RCS (m²)

Purposes: comms

External: N2YO · Heavens-Above · Gunter

§ Orbital elements

Epoch: 2026-09-20T08:00:01.999872Z

Period
94.27 min
Inclination
43.0016°
Eccentricity
0.0001490
Mean motion
15.27568053 rev/d
Perigee alt
482.1 km
Apogee alt
484.1 km
Semi-major
6,861.2 km
B*
1.1572e-3
RAAN
66.1030°
Arg perigee
264.9769°
Mean anomaly
325.0198°
Rev number
587

§ Raw data

STARLINK-329381 63201U 25048U   26263.33335648  .00031706  00000+0  11572-2 0  99992 63201  43.0016  66.1030 0001490 264.9769 325.0198 15.27568053  5871

JSON: /api/v1/satellites/63201 · /tle

For live sub-satellite position, see the globe view (requires WebGL).

§ Visibility from observer

Set your observer location to see the next 7 days of passes ≥ 10°. The values pass through the URL so the page stays shareable.

No JS? Fill the form by hand. The geolocation button needs JavaScript.